TimePDT,TemperatureF,Dew PointF,Humidity,Sea Level PressureIn,VisibilityMPH,Wind Direction,Wind SpeedMPH,Gust SpeedMPH,PrecipitationIn,Events,Conditions,WindDirDegrees,DateUTC
12:53 AM,46.0,23.0,40,29.85,10.0,South,11.5,-,N/A,,Clear,190,2013-06-19 07:53:00
1:53 AM,46.0,15.1,29,29.83,10.0,South,17.3,21.9,N/A,,Clear,180,2013-06-19 08:53:00
2:53 AM,45.0,10.0,24,29.83,10.0,South,12.7,-,N/A,,Clear,190,2013-06-19 09:53:00
3:53 AM,45.0,7.0,21,29.85,10.0,SSW,9.2,-,N/A,,Clear,200,2013-06-19 10:53:00
4:53 AM,43.0,9.0,25,29.86,10.0,South,10.4,16.1,N/A,,Clear,190,2013-06-19 11:53:00
5:53 AM,43.0,10.9,27,29.88,10.0,SSW,8.1,-,N/A,,Clear,200,2013-06-19 12:53:00
6:53 AM,45.0,12.9,27,29.90,10.0,East,8.1,-,N/A,,Clear,100,2013-06-19 13:53:00
7:53 AM,48.0,12.9,24,29.94,10.0,South,11.5,-,N/A,,Clear,180,2013-06-19 14:53:00
8:53 AM,51.1,12.9,22,29.94,10.0,South,13.8,-,N/A,,Clear,190,2013-06-19 15:53:00
9:53 AM,53.1,10.9,19,29.94,10.0,SSW,13.8,-,N/A,,Clear,200,2013-06-19 16:53:00
10:53 AM,57.0,9.0,15,29.93,10.0,South,15.0,24.2,N/A,,Clear,190,2013-06-19 17:53:00
11:53 AM,59.0,5.0,12,29.95,10.0,SSW,17.3,21.9,N/A,,Clear,200,2013-06-19 18:53:00
12:53 PM,60.1,9.0,13,29.95,7.0,South,17.3,23.0,N/A,,Clear,190,2013-06-19 19:53:00
1:53 PM,62.1,12.0,14,29.95,10.0,South,15.0,20.7,N/A,,Clear,190,2013-06-19 20:53:00
2:53 PM,62.1,14.0,15,29.95,10.0,SSW,13.8,-,N/A,,Clear,200,2013-06-19 21:53:00
3:53 PM,63.0,16.0,16,29.95,10.0,South,15.0,23.0,N/A,,Clear,190,2013-06-19 22:53:00
4:53 PM,62.1,15.1,16,29.96,10.0,South,16.1,23.0,N/A,,Clear,180,2013-06-19 23:53:00
5:53 PM,59.0,19.0,21,29.97,10.0,SW,9.2,23.0,N/A,,Clear,220,2013-06-20 00:53:00
6:53 PM,55.9,19.9,25,29.99,10.0,SSW,8.1,-,N/A,,Clear,210,2013-06-20 01:53:00
7:53 PM,54.0,21.0,28,29.99,10.0,SSW,4.6,-,N/A,,Clear,200,2013-06-20 02:53:00
8:53 PM,48.9,27.0,43,30.01,10.0,SW,6.9,-,N/A,,Clear,230,2013-06-20 03:53:00
9:53 PM,48.0,28.9,48,30.02,10.0,South,5.8,-,N/A,,Clear,180,2013-06-20 04:53:00
10:53 PM,43.0,28.0,56,30.02,10.0,Calm,Calm,-,N/A,,Clear,0,2013-06-20 05:53:00
11:53 PM,39.0,27.0,62,30.02,10.0,Calm,Calm,-,N/A,,Clear,0,2013-06-20 06:53:00